Year,Month,Day,Hour,Minute,Value (Times are PST for temperature in C)
2012,08,05,00,00,17.30
2012,08,05,00,01,17.30
2012,08,05,00,02,17.30
2012,08,05,00,03,17.30
2012,08,05,00,04,17.30
2012,08,05,00,05,17.30
2012,08,05,00,06,17.30
2012,08,05,00,07,17.30
2012,08,05,00,08,17.30
2012,08,05,00,09,17.20
2012,08,05,00,10,17.20
2012,08,05,00,11,17.20
2012,08,05,00,12,17.20
2012,08,05,00,13,17.20
2012,08,05,00,14,17.20
2012,08,05,00,15,17.20
2012,08,05,00,16,17.20
2012,08,05,00,17,17.20
2012,08,05,00,18,17.20
2012,08,05,00,19,17.20
2012,08,05,00,20,17.20
2012,08,05,00,21,17.20
2012,08,05,00,22,17.20
2012,08,05,00,23,17.20
2012,08,05,00,24,17.20
2012,08,05,00,25,17.20
2012,08,05,00,26,17.20
2012,08,05,00,27,17.20
2012,08,05,00,28,17.20
2012,08,05,00,29,17.10
2012,08,05,00,30,17.10
2012,08,05,00,31,17.10
2012,08,05,00,32,17.10
2012,08,05,00,33,17.10
2012,08,05,00,34,17.10
2012,08,05,00,35,17.10
2012,08,05,00,36,17.10
2012,08,05,00,37,17.10
2012,08,05,00,38,17.10
2012,08,05,00,39,17.10
2012,08,05,00,40,17.10
2012,08,05,00,41,17.10
2012,08,05,00,42,17.10
2012,08,05,00,43,17.10
2012,08,05,00,44,17.00
2012,08,05,00,45,17.00
2012,08,05,00,46,17.00
2012,08,05,00,47,17.00
2012,08,05,00,48,17.00
2012,08,05,00,49,17.00
2012,08,05,00,50,16.90
2012,08,05,00,51,16.90
2012,08,05,00,52,16.90
2012,08,05,00,53,16.90
2012,08,05,00,54,16.90
2012,08,05,00,55,16.90
2012,08,05,00,56,16.90
2012,08,05,00,57,16.90
2012,08,05,00,58,16.90
2012,08,05,00,59,16.80
2012,08,05,01,00,16.80
2012,08,05,01,01,16.80
2012,08,05,01,02,16.80
2012,08,05,01,03,16.80
2012,08,05,01,04,16.80
2012,08,05,01,05,16.80
2012,08,05,01,06,16.80
2012,08,05,01,07,16.80
2012,08,05,01,08,16.80
2012,08,05,01,09,16.80
2012,08,05,01,10,16.80
2012,08,05,01,11,16.80
2012,08,05,01,12,16.80
2012,08,05,01,13,16.80
2012,08,05,01,14,16.80
2012,08,05,01,15,16.80
2012,08,05,01,16,16.80
2012,08,05,01,17,16.80
2012,08,05,01,18,16.80
2012,08,05,01,19,16.70
2012,08,05,01,20,16.70
2012,08,05,01,21,16.70
2012,08,05,01,22,16.70
2012,08,05,01,23,16.70
2012,08,05,01,24,16.70
2012,08,05,01,25,16.70
2012,08,05,01,26,16.70
2012,08,05,01,27,16.70
2012,08,05,01,28,16.70
2012,08,05,01,29,16.70
2012,08,05,01,30,16.70
2012,08,05,01,31,16.70
2012,08,05,01,32,16.70
2012,08,05,01,33,16.70
2012,08,05,01,34,16.70
2012,08,05,01,35,16.70
2012,08,05,01,36,16.70
2012,08,05,01,37,16.70
2012,08,05,01,38,16.60
2012,08,05,01,39,16.60
2012,08,05,01,40,16.60
2012,08,05,01,41,16.60
2012,08,05,01,42,16.60
2012,08,05,01,43,16.60
2012,08,05,01,44,16.60
2012,08,05,01,45,16.60
2012,08,05,01,46,16.60
2012,08,05,01,47,16.60
2012,08,05,01,48,16.50
2012,08,05,01,49,16.50
2012,08,05,01,50,16.50
2012,08,05,01,51,16.50
2012,08,05,01,52,16.50
2012,08,05,01,53,16.50
2012,08,05,01,54,16.50
2012,08,05,01,55,16.50
2012,08,05,01,56,16.40
2012,08,05,01,57,16.40
2012,08,05,01,58,16.40
2012,08,05,01,59,16.40
2012,08,05,02,00,16.40
2012,08,05,02,01,16.40
2012,08,05,02,02,16.40
2012,08,05,02,03,16.40
2012,08,05,02,04,16.40
2012,08,05,02,05,16.40
2012,08,05,02,06,16.40
2012,08,05,02,07,16.40
2012,08,05,02,08,16.40
2012,08,05,02,09,16.30
2012,08,05,02,10,16.30
2012,08,05,02,11,16.30
2012,08,05,02,12,16.30
2012,08,05,02,13,16.30
2012,08,05,02,14,16.30
2012,08,05,02,15,16.30
2012,08,05,02,16,16.30
2012,08,05,02,17,16.20
2012,08,05,02,18,16.20
2012,08,05,02,19,16.20
2012,08,05,02,20,16.20
2012,08,05,02,21,16.20
2012,08,05,02,22,16.20
2012,08,05,02,23,16.20
2012,08,05,02,24,16.20
2012,08,05,02,25,16.20
2012,08,05,02,26,16.10
2012,08,05,02,27,16.10
2012,08,05,02,28,16.10
2012,08,05,02,29,16.10
2012,08,05,02,30,16.10
2012,08,05,02,31,16.10
2012,08,05,02,32,16.10
2012,08,05,02,33,16.10
2012,08,05,02,34,16.10
2012,08,05,02,35,16.10
2012,08,05,02,36,16.10
2012,08,05,02,37,16.10
2012,08,05,02,38,16.10
2012,08,05,02,39,16.10
2012,08,05,02,40,16.10
2012,08,05,02,41,16.10
2012,08,05,02,42,16.10
2012,08,05,02,43,16.10
2012,08,05,02,44,16.10
2012,08,05,02,45,16.10
2012,08,05,02,46,16.10
2012,08,05,02,47,16.10
2012,08,05,02,48,16.10
2012,08,05,02,49,16.10
2012,08,05,02,50,16.10
2012,08,05,02,51,16.00
2012,08,05,02,52,16.00
2012,08,05,02,53,16.00
2012,08,05,02,54,16.00
2012,08,05,02,55,15.90
2012,08,05,02,56,15.90
2012,08,05,02,57,15.90
2012,08,05,02,58,15.90
2012,08,05,02,59,15.90
2012,08,05,03,00,15.90
2012,08,05,03,01,15.90
2012,08,05,03,02,15.90
2012,08,05,03,03,15.90
2012,08,05,03,04,15.90
2012,08,05,03,05,15.90
2012,08,05,03,06,15.90
2012,08,05,03,07,15.90
2012,08,05,03,08,15.90
2012,08,05,03,09,15.90
2012,08,05,03,10,15.90
2012,08,05,03,11,15.80
2012,08,05,03,12,15.80
2012,08,05,03,13,15.80
2012,08,05,03,14,15.80
2012,08,05,03,15,15.80
2012,08,05,03,16,15.80
2012,08,05,03,17,15.80
2012,08,05,03,18,15.80
2012,08,05,03,19,15.80
2012,08,05,03,20,15.80
2012,08,05,03,21,15.80
2012,08,05,03,22,15.80
2012,08,05,03,23,15.80
2012,08,05,03,24,15.80
2012,08,05,03,25,15.80
2012,08,05,03,26,15.80
2012,08,05,03,27,15.80
2012,08,05,03,28,15.80
2012,08,05,03,29,15.80
2012,08,05,03,30,15.70
2012,08,05,03,31,15.70
2012,08,05,03,32,15.70
2012,08,05,03,33,15.70
2012,08,05,03,34,15.70
2012,08,05,03,35,15.70
2012,08,05,03,36,15.70
2012,08,05,03,37,15.70
2012,08,05,03,38,15.70
2012,08,05,03,39,15.60
2012,08,05,03,40,15.60
2012,08,05,03,41,15.60
2012,08,05,03,42,15.60
2012,08,05,03,43,15.60
2012,08,05,03,44,15.60
2012,08,05,03,45,15.60
2012,08,05,03,46,15.60
2012,08,05,03,47,15.50
2012,08,05,03,48,15.50
2012,08,05,03,49,15.50
2012,08,05,03,50,15.50
2012,08,05,03,51,15.50
2012,08,05,03,52,15.50
2012,08,05,03,53,15.50
2012,08,05,03,54,15.40
2012,08,05,03,55,15.40
2012,08,05,03,56,15.40
2012,08,05,03,57,15.40
2012,08,05,03,58,15.40
2012,08,05,03,59,15.40
2012,08,05,04,00,15.40
2012,08,05,04,01,15.40
2012,08,05,04,02,15.40
2012,08,05,04,03,15.40
2012,08,05,04,04,15.40
2012,08,05,04,05,15.40
2012,08,05,04,06,15.40
2012,08,05,04,07,15.40
2012,08,05,04,08,15.40
2012,08,05,04,09,15.40
2012,08,05,04,10,15.40
2012,08,05,04,11,15.40
2012,08,05,04,12,15.40
2012,08,05,04,13,15.40
2012,08,05,04,14,15.40
2012,08,05,04,15,15.40
2012,08,05,04,16,15.40
2012,08,05,04,17,15.40
2012,08,05,04,18,15.40
2012,08,05,04,19,15.30
2012,08,05,04,20,15.30
2012,08,05,04,21,15.30
2012,08,05,04,22,15.30
2012,08,05,04,23,15.30
2012,08,05,04,24,15.30
2012,08,05,04,25,15.30
2012,08,05,04,26,15.30
2012,08,05,04,27,15.30
2012,08,05,04,28,15.30
2012,08,05,04,29,15.30
2012,08,05,04,30,15.30
2012,08,05,04,31,15.30
2012,08,05,04,32,15.30
2012,08,05,04,33,15.30
2012,08,05,04,34,15.30
2012,08,05,04,35,15.30
2012,08,05,04,36,15.30
2012,08,05,04,37,15.30
2012,08,05,04,38,15.20
2012,08,05,04,39,15.20
2012,08,05,04,40,15.20
2012,08,05,04,41,15.20
2012,08,05,04,42,15.20
2012,08,05,04,43,15.20
2012,08,05,04,44,15.20
2012,08,05,04,45,15.20
2012,08,05,04,46,15.20
2012,08,05,04,47,15.20
2012,08,05,04,48,15.20
2012,08,05,04,49,15.10
2012,08,05,04,50,15.10
2012,08,05,04,51,15.10
2012,08,05,04,52,15.10
2012,08,05,04,53,15.10
2012,08,05,04,54,15.10
2012,08,05,04,55,15.00
2012,08,05,04,56,15.00
2012,08,05,04,57,15.00
2012,08,05,04,58,15.00
2012,08,05,04,59,15.00
2012,08,05,05,00,15.00
2012,08,05,05,01,15.00
2012,08,05,05,02,15.00
2012,08,05,05,03,15.00
2012,08,05,05,04,15.00
2012,08,05,05,05,15.00
2012,08,05,05,06,15.00
2012,08,05,05,07,15.00
2012,08,05,05,08,15.00
2012,08,05,05,09,15.00
2012,08,05,05,10,15.00
2012,08,05,05,11,15.00
2012,08,05,05,12,15.00
2012,08,05,05,13,15.00
2012,08,05,05,14,15.00
2012,08,05,05,15,15.00
2012,08,05,05,16,15.00
2012,08,05,05,17,15.00
2012,08,05,05,18,15.00
2012,08,05,05,19,15.00
2012,08,05,05,20,15.00
2012,08,05,05,21,15.00
2012,08,05,05,22,15.00
2012,08,05,05,23,15.00
2012,08,05,05,24,15.00
2012,08,05,05,25,15.00
2012,08,05,05,26,15.00
2012,08,05,05,27,15.00
2012,08,05,05,28,15.00
2012,08,05,05,29,15.00
2012,08,05,05,30,15.00
2012,08,05,05,31,15.00
2012,08,05,05,32,15.00
2012,08,05,05,33,15.00
2012,08,05,05,34,15.00
2012,08,05,05,35,15.00
2012,08,05,05,36,15.00
2012,08,05,05,37,15.00
2012,08,05,05,38,15.00
2012,08,05,05,39,15.00
2012,08,05,05,40,15.00
2012,08,05,05,41,15.00
2012,08,05,05,42,15.00
2012,08,05,05,43,15.00
2012,08,05,05,44,15.00
2012,08,05,05,45,15.00
2012,08,05,05,46,15.00
2012,08,05,05,47,15.00
2012,08,05,05,48,15.00
2012,08,05,05,49,15.00
2012,08,05,05,50,14.90
2012,08,05,05,51,14.90
2012,08,05,05,52,14.90
2012,08,05,05,53,14.90
2012,08,05,05,54,14.90
2012,08,05,05,55,14.90
2012,08,05,05,56,14.90
2012,08,05,05,57,14.90
2012,08,05,05,58,14.90
2012,08,05,05,59,14.90
2012,08,05,06,00,14.90
2012,08,05,06,01,14.90
2012,08,05,06,02,14.90
2012,08,05,06,03,14.90
2012,08,05,06,04,14.80
2012,08,05,06,05,14.80
2012,08,05,06,06,14.80
2012,08,05,06,07,14.80
2012,08,05,06,08,14.80
2012,08,05,06,09,14.80
2012,08,05,06,10,14.80
2012,08,05,06,11,14.80
2012,08,05,06,12,14.80
2012,08,05,06,13,14.80
2012,08,05,06,14,14.80
2012,08,05,06,15,14.80
2012,08,05,06,16,14.80
2012,08,05,06,17,14.80
2012,08,05,06,18,14.80
2012,08,05,06,19,14.80
2012,08,05,06,20,14.80
2012,08,05,06,21,14.80
2012,08,05,06,22,14.70
2012,08,05,06,23,14.70
2012,08,05,06,24,14.70
2012,08,05,06,25,14.70
2012,08,05,06,26,14.70
2012,08,05,06,27,14.70
2012,08,05,06,28,14.70
2012,08,05,06,29,14.70
2012,08,05,06,30,14.70
2012,08,05,06,31,14.70
2012,08,05,06,32,14.70
2012,08,05,06,33,14.70
2012,08,05,06,34,14.70
2012,08,05,06,35,14.70
2012,08,05,06,36,14.70
2012,08,05,06,37,14.70
2012,08,05,06,38,14.70
2012,08,05,06,39,14.70
2012,08,05,06,40,14.70
2012,08,05,06,41,14.70
2012,08,05,06,42,14.70
2012,08,05,06,43,14.80
2012,08,05,06,44,14.80
2012,08,05,06,45,14.80
2012,08,05,06,46,14.80
2012,08,05,06,47,14.80
2012,08,05,06,48,14.80
2012,08,05,06,49,14.80
2012,08,05,06,50,14.80
2012,08,05,06,51,14.80
2012,08,05,06,52,14.80
2012,08,05,06,53,14.80
2012,08,05,06,54,14.80
2012,08,05,06,55,14.80
2012,08,05,06,56,14.80
2012,08,05,06,57,14.80
2012,08,05,06,58,14.80
2012,08,05,06,59,14.80
2012,08,05,07,00,14.90
2012,08,05,07,01,14.90
2012,08,05,07,02,14.90
2012,08,05,07,03,14.90
2012,08,05,07,04,14.90
2012,08,05,07,05,15.00
2012,08,05,07,06,15.00
2012,08,05,07,07,15.00
2012,08,05,07,08,15.00
2012,08,05,07,09,15.00
2012,08,05,07,10,15.00
2012,08,05,07,11,15.00
2012,08,05,07,12,15.00
2012,08,05,07,13,15.00
2012,08,05,07,14,15.00
2012,08,05,07,15,15.00
2012,08,05,07,16,15.00
2012,08,05,07,17,15.00
2012,08,05,07,18,15.00
2012,08,05,07,19,15.00
2012,08,05,07,20,15.00
2012,08,05,07,21,15.00
2012,08,05,07,22,15.00
2012,08,05,07,23,15.00
2012,08,05,07,24,15.00
2012,08,05,07,25,15.10
2012,08,05,07,26,15.20
2012,08,05,07,27,15.20
2012,08,05,07,28,15.20
2012,08,05,07,29,15.30
2012,08,05,07,30,15.30
2012,08,05,07,31,15.30
2012,08,05,07,32,15.40
2012,08,05,07,33,15.40
2012,08,05,07,34,15.40
2012,08,05,07,35,15.50
2012,08,05,07,36,15.50
2012,08,05,07,37,15.50
2012,08,05,07,38,15.60
2012,08,05,07,39,15.60
2012,08,05,07,40,15.70
2012,08,05,07,41,15.70
2012,08,05,07,42,15.80
2012,08,05,07,43,15.80
2012,08,05,07,44,15.90
2012,08,05,07,45,15.90
2012,08,05,07,46,16.00
2012,08,05,07,47,16.10
2012,08,05,07,48,16.10
2012,08,05,07,49,16.20
2012,08,05,07,50,16.20
2012,08,05,07,51,16.30
2012,08,05,07,52,16.40
2012,08,05,07,53,16.40
2012,08,05,07,54,16.50
2012,08,05,07,55,16.60
2012,08,05,07,56,16.70
2012,08,05,07,57,16.80
2012,08,05,07,58,16.90
2012,08,05,07,59,17.10
2012,08,05,08,00,17.20
2012,08,05,08,01,17.40
2012,08,05,08,02,17.60
2012,08,05,08,03,17.70
2012,08,05,08,04,17.90
2012,08,05,08,05,18.10
2012,08,05,08,06,18.30
2012,08,05,08,07,18.50
2012,08,05,08,08,18.70
2012,08,05,08,09,18.90
2012,08,05,08,10,19.10
2012,08,05,08,11,19.20
2012,08,05,08,12,19.40
2012,08,05,08,13,19.60
2012,08,05,08,14,19.70
2012,08,05,08,15,19.90
2012,08,05,08,16,20.10
2012,08,05,08,17,20.30
2012,08,05,08,18,20.50
2012,08,05,08,19,20.80
2012,08,05,08,20,21.00
2012,08,05,08,21,21.30
2012,08,05,08,22,21.50
2012,08,05,08,23,21.80
2012,08,05,08,24,22.00
2012,08,05,08,25,22.20
2012,08,05,08,26,22.40
2012,08,05,08,27,22.60
2012,08,05,08,28,22.80
2012,08,05,08,29,22.90
2012,08,05,08,30,23.10
2012,08,05,08,31,23.30
2012,08,05,08,32,23.40
2012,08,05,08,33,23.60
2012,08,05,08,34,23.70
2012,08,05,08,35,23.80
2012,08,05,08,36,23.90
2012,08,05,08,37,24.00
2012,08,05,08,38,24.10
2012,08,05,08,39,24.30
2012,08,05,08,40,24.40
2012,08,05,08,41,24.60
2012,08,05,08,42,24.70
2012,08,05,08,43,24.70
2012,08,05,08,44,24.70
2012,08,05,08,45,24.80
2012,08,05,08,46,24.90
2012,08,05,08,47,25.00
2012,08,05,08,48,25.10
2012,08,05,08,49,25.30
2012,08,05,08,50,25.40
2012,08,05,08,51,25.60
2012,08,05,08,52,25.70
2012,08,05,08,53,25.80
2012,08,05,08,54,25.90
2012,08,05,08,55,25.90
2012,08,05,08,56,25.90
2012,08,05,08,57,26.00
2012,08,05,08,58,26.10
2012,08,05,08,59,26.20
2012,08,05,09,00,26.20
2012,08,05,09,01,26.20
2012,08,05,09,02,26.30
2012,08,05,09,03,26.30
2012,08,05,09,04,26.30
2012,08,05,09,05,26.30
2012,08,05,09,06,26.30
2012,08,05,09,07,26.30
2012,08,05,09,08,26.30
2012,08,05,09,09,26.20
2012,08,05,09,10,26.20
2012,08,05,09,11,26.20
2012,08,05,09,12,26.30
2012,08,05,09,13,26.40
2012,08,05,09,14,26.40
2012,08,05,09,15,26.50
2012,08,05,09,16,26.60
2012,08,05,09,17,26.60
2012,08,05,09,18,26.60
2012,08,05,09,19,26.70
2012,08,05,09,20,26.80
2012,08,05,09,21,26.80
2012,08,05,09,22,26.90
2012,08,05,09,23,26.90
2012,08,05,09,24,26.90
2012,08,05,09,25,26.90
2012,08,05,09,26,26.90
2012,08,05,09,27,27.00
2012,08,05,09,28,27.10
2012,08,05,09,29,27.10
2012,08,05,09,30,27.20
2012,08,05,09,31,27.30
2012,08,05,09,32,27.50
2012,08,05,09,33,27.60
2012,08,05,09,34,27.60
2012,08,05,09,35,27.70
2012,08,05,09,36,27.80
2012,08,05,09,37,27.80
2012,08,05,09,38,27.90
2012,08,05,09,39,27.90
2012,08,05,09,40,27.90
2012,08,05,09,41,27.90
2012,08,05,09,42,28.00
2012,08,05,09,43,28.00
2012,08,05,09,44,28.10
2012,08,05,09,45,28.10
2012,08,05,09,46,28.10
2012,08,05,09,47,28.20
2012,08,05,09,48,28.20
2012,08,05,09,49,28.20
2012,08,05,09,50,28.30
2012,08,05,09,51,28.40
2012,08,05,09,52,28.40
2012,08,05,09,53,28.50
2012,08,05,09,54,28.50
2012,08,05,09,55,28.40
2012,08,05,09,56,28.40
2012,08,05,09,57,28.30
2012,08,05,09,58,28.30
2012,08,05,09,59,28.20
2012,08,05,10,00,28.20
2012,08,05,10,01,28.10
2012,08,05,10,02,28.00
2012,08,05,10,03,27.90
2012,08,05,10,04,27.90
2012,08,05,10,05,27.80
2012,08,05,10,06,27.80
2012,08,05,10,07,27.80
2012,08,05,10,08,27.80
2012,08,05,10,09,27.80
2012,08,05,10,10,27.80
2012,08,05,10,11,27.70
2012,08,05,10,12,27.70
2012,08,05,10,13,27.70
2012,08,05,10,14,27.60
2012,08,05,10,15,27.60
2012,08,05,10,16,27.60
2012,08,05,10,17,27.60
2012,08,05,10,18,27.60
2012,08,05,10,19,27.60
2012,08,05,10,20,27.70
2012,08,05,10,21,27.70
2012,08,05,10,22,27.80
2012,08,05,10,23,27.80
2012,08,05,10,24,27.80
2012,08,05,10,25,27.80
2012,08,05,10,26,27.80
2012,08,05,10,27,27.80
2012,08,05,10,28,27.80
2012,08,05,10,29,27.80
2012,08,05,10,30,27.80
2012,08,05,10,31,27.90
2012,08,05,10,32,27.90
2012,08,05,10,33,28.00
2012,08,05,10,34,28.00
2012,08,05,10,35,28.10
2012,08,05,10,36,28.00
2012,08,05,10,37,28.00
2012,08,05,10,38,28.00
2012,08,05,10,39,28.00
2012,08,05,10,40,27.90
2012,08,05,10,41,27.90
2012,08,05,10,42,27.80
2012,08,05,10,43,27.80
2012,08,05,10,44,27.90
2012,08,05,10,45,27.90
2012,08,05,10,46,28.00
2012,08,05,10,47,28.00
2012,08,05,10,48,28.10
2012,08,05,10,49,28.20
2012,08,05,10,50,28.30
2012,08,05,10,51,28.40
2012,08,05,10,52,28.40
2012,08,05,10,53,28.50
2012,08,05,10,54,28.60
2012,08,05,10,55,28.60
2012,08,05,10,56,28.60
2012,08,05,10,57,28.50
2012,08,05,10,58,28.50
2012,08,05,10,59,28.50
2012,08,05,11,00,28.50
2012,08,05,11,01,28.50
2012,08,05,11,02,28.60
2012,08,05,11,03,28.60
2012,08,05,11,04,28.70
2012,08,05,11,05,28.70
2012,08,05,11,06,28.70
2012,08,05,11,07,28.80
2012,08,05,11,08,28.80
2012,08,05,11,09,28.80
2012,08,05,11,10,28.90
2012,08,05,11,11,29.00
2012,08,05,11,12,29.10
2012,08,05,11,13,29.20
2012,08,05,11,14,29.20
2012,08,05,11,15,29.20
2012,08,05,11,16,29.20
2012,08,05,11,17,29.30
2012,08,05,11,18,29.30
2012,08,05,11,19,29.20
2012,08,05,11,20,29.20
2012,08,05,11,21,29.20
2012,08,05,11,22,29.20
2012,08,05,11,23,29.20
2012,08,05,11,24,29.20
2012,08,05,11,25,29.20
2012,08,05,11,26,29.20
2012,08,05,11,27,29.20
2012,08,05,11,28,29.20
2012,08,05,11,29,29.30
2012,08,05,11,30,29.30
2012,08,05,11,31,29.40
2012,08,05,11,32,29.50
2012,08,05,11,33,29.50
2012,08,05,11,34,29.60
2012,08,05,11,35,29.70
2012,08,05,11,36,29.70
2012,08,05,11,37,29.80
2012,08,05,11,38,29.80
2012,08,05,11,39,29.80
2012,08,05,11,40,29.70
2012,08,05,11,41,29.70
2012,08,05,11,42,29.60
2012,08,05,11,43,29.60
2012,08,05,11,44,29.50
2012,08,05,11,45,29.40
2012,08,05,11,46,29.30
2012,08,05,11,47,29.20
2012,08,05,11,48,29.20
2012,08,05,11,49,29.20
2012,08,05,11,50,29.30
2012,08,05,11,51,29.30
2012,08,05,11,52,29.40
2012,08,05,11,53,29.50
2012,08,05,11,54,29.60
2012,08,05,11,55,29.60
2012,08,05,11,56,29.70
2012,08,05,11,57,29.70
2012,08,05,11,58,29.80
2012,08,05,11,59,29.90
2012,08,05,12,00,29.90
2012,08,05,12,01,29.90
2012,08,05,12,02,30.00
2012,08,05,12,03,30.00
2012,08,05,12,04,30.10
2012,08,05,12,05,30.00
2012,08,05,12,06,30.00
2012,08,05,12,07,29.90
2012,08,05,12,08,29.90
2012,08,05,12,09,30.00
2012,08,05,12,10,30.10
2012,08,05,12,11,30.10
2012,08,05,12,12,30.20
2012,08,05,12,13,30.30
2012,08,05,12,14,30.40
2012,08,05,12,15,30.40
2012,08,05,12,16,30.40
2012,08,05,12,17,30.40
2012,08,05,12,18,30.40
2012,08,05,12,19,30.40
2012,08,05,12,20,30.30
2012,08,05,12,21,30.10
2012,08,05,12,22,30.10
2012,08,05,12,23,30.10
2012,08,05,12,24,30.10
2012,08,05,12,25,30.20
2012,08,05,12,26,30.20
2012,08,05,12,27,30.10
2012,08,05,12,28,30.10
2012,08,05,12,29,30.10
2012,08,05,12,30,30.10
2012,08,05,12,31,30.20
2012,08,05,12,32,30.10
2012,08,05,12,33,30.10
2012,08,05,12,34,30.00
2012,08,05,12,35,29.90
2012,08,05,12,36,29.90
2012,08,05,12,37,29.90
2012,08,05,12,38,30.00
2012,08,05,12,39,30.10
2012,08,05,12,40,30.20
2012,08,05,12,41,30.30
2012,08,05,12,42,30.40
2012,08,05,12,43,30.40
2012,08,05,12,44,30.40
2012,08,05,12,45,30.40
2012,08,05,12,46,30.50
2012,08,05,12,47,30.60
2012,08,05,12,48,30.60
2012,08,05,12,49,30.60
2012,08,05,12,50,30.60
2012,08,05,12,51,30.70
2012,08,05,12,52,30.70
2012,08,05,12,53,30.70
2012,08,05,12,54,30.70
2012,08,05,12,55,30.70
2012,08,05,12,56,30.80
2012,08,05,12,57,30.90
2012,08,05,12,58,31.10
2012,08,05,12,59,31.10
2012,08,05,13,00,31.20
2012,08,05,13,01,31.30
2012,08,05,13,02,31.40
2012,08,05,13,03,31.40
2012,08,05,13,04,31.30
2012,08,05,13,05,31.30
2012,08,05,13,06,31.30
2012,08,05,13,07,31.30
2012,08,05,13,08,31.30
2012,08,05,13,09,31.30
2012,08,05,13,10,31.40
2012,08,05,13,11,31.50
2012,08,05,13,12,31.50
2012,08,05,13,13,31.60
2012,08,05,13,14,31.60
2012,08,05,13,15,31.70
2012,08,05,13,16,31.70
2012,08,05,13,17,31.80
2012,08,05,13,18,31.80
2012,08,05,13,19,31.80
2012,08,05,13,20,31.80
2012,08,05,13,21,31.80
2012,08,05,13,22,31.80
2012,08,05,13,23,31.70
2012,08,05,13,24,31.60
2012,08,05,13,25,31.40
2012,08,05,13,26,31.30
2012,08,05,13,27,31.30
2012,08,05,13,28,31.30
2012,08,05,13,29,31.30
2012,08,05,13,30,31.30
2012,08,05,13,31,31.30
2012,08,05,13,32,31.40
2012,08,05,13,33,31.40
2012,08,05,13,34,31.40
2012,08,05,13,35,31.40
2012,08,05,13,36,31.40
2012,08,05,13,37,31.40
2012,08,05,13,38,31.30
2012,08,05,13,39,31.30
2012,08,05,13,40,31.30
2012,08,05,13,41,31.30
2012,08,05,13,42,31.30
2012,08,05,13,43,31.20
2012,08,05,13,44,31.20
2012,08,05,13,45,31.20
2012,08,05,13,46,31.30
2012,08,05,13,47,31.40
2012,08,05,13,48,31.50
2012,08,05,13,49,31.60
2012,08,05,13,50,31.70
2012,08,05,13,51,31.80
2012,08,05,13,52,31.80
2012,08,05,13,53,31.70
2012,08,05,13,54,31.70
2012,08,05,13,55,31.60
2012,08,05,13,56,31.50
2012,08,05,13,57,31.50
2012,08,05,13,58,31.40
2012,08,05,13,59,31.40
2012,08,05,14,00,31.40
2012,08,05,14,01,31.40
2012,08,05,14,02,31.40
2012,08,05,14,03,31.40
2012,08,05,14,04,31.30
2012,08,05,14,05,31.30
2012,08,05,14,06,31.20
2012,08,05,14,07,31.20
2012,08,05,14,08,31.20
2012,08,05,14,09,31.20
2012,08,05,14,10,31.30
2012,08,05,14,11,31.20
2012,08,05,14,12,31.10
2012,08,05,14,13,31.00
2012,08,05,14,14,31.10
2012,08,05,14,15,31.10
2012,08,05,14,16,31.20
2012,08,05,14,17,31.20
2012,08,05,14,18,31.20
2012,08,05,14,19,31.20
2012,08,05,14,20,31.30
2012,08,05,14,21,31.40
2012,08,05,14,22,31.50
2012,08,05,14,23,31.70
2012,08,05,14,24,31.80
2012,08,05,14,25,31.90
2012,08,05,14,26,32.00
2012,08,05,14,27,31.90
2012,08,05,14,28,31.70
2012,08,05,14,29,31.50
2012,08,05,14,30,31.40
2012,08,05,14,31,31.40
2012,08,05,14,32,31.40
2012,08,05,14,33,31.40
2012,08,05,14,34,31.40
2012,08,05,14,35,31.30
2012,08,05,14,36,31.30
2012,08,05,14,37,31.40
2012,08,05,14,38,31.30
2012,08,05,14,39,31.30
2012,08,05,14,40,31.30
2012,08,05,14,41,31.40
2012,08,05,14,42,31.40
2012,08,05,14,43,31.40
2012,08,05,14,44,31.40
2012,08,05,14,45,31.50
2012,08,05,14,46,31.60
2012,08,05,14,47,31.70
2012,08,05,14,48,31.80
2012,08,05,14,49,31.80
2012,08,05,14,50,31.80
2012,08,05,14,51,31.90
2012,08,05,14,52,31.90
2012,08,05,14,53,31.90
2012,08,05,14,54,31.90
2012,08,05,14,55,31.80
2012,08,05,14,56,31.70
2012,08,05,14,57,31.50
2012,08,05,14,58,31.30
2012,08,05,14,59,31.30
2012,08,05,15,00,31.30
2012,08,05,15,01,31.30
2012,08,05,15,02,31.40
2012,08,05,15,03,31.40
2012,08,05,15,04,31.50
2012,08,05,15,05,31.60
2012,08,05,15,06,31.70
2012,08,05,15,07,31.80
2012,08,05,15,08,31.70
2012,08,05,15,09,31.70
2012,08,05,15,10,31.70
2012,08,05,15,11,31.70
2012,08,05,15,12,31.70
2012,08,05,15,13,31.70
2012,08,05,15,14,31.70
2012,08,05,15,15,31.70
2012,08,05,15,16,31.80
2012,08,05,15,17,31.80
2012,08,05,15,18,31.80
2012,08,05,15,19,31.80
2012,08,05,15,20,31.90
2012,08,05,15,21,31.90
2012,08,05,15,22,31.90
2012,08,05,15,23,31.80
2012,08,05,15,24,31.70
2012,08,05,15,25,31.50
2012,08,05,15,26,31.40
2012,08,05,15,27,31.30
2012,08,05,15,28,31.10
2012,08,05,15,29,31.10
2012,08,05,15,30,31.10
2012,08,05,15,31,31.10
2012,08,05,15,32,31.10
2012,08,05,15,33,31.10
2012,08,05,15,34,31.20
2012,08,05,15,35,31.20
2012,08,05,15,36,31.30
2012,08,05,15,37,31.30
2012,08,05,15,38,31.40
2012,08,05,15,39,31.40
2012,08,05,15,40,31.50
2012,08,05,15,41,31.50
2012,08,05,15,42,31.50
2012,08,05,15,43,31.40
2012,08,05,15,44,31.30
2012,08,05,15,45,31.30
2012,08,05,15,46,31.20
2012,08,05,15,47,31.10
2012,08,05,15,48,31.10
2012,08,05,15,49,31.10
2012,08,05,15,50,31.10
2012,08,05,15,51,31.10
2012,08,05,15,52,31.10
2012,08,05,15,53,31.20
2012,08,05,15,54,31.10
2012,08,05,15,55,31.10
2012,08,05,15,56,31.10
2012,08,05,15,57,31.10
2012,08,05,15,58,31.20
2012,08,05,15,59,31.20
2012,08,05,16,00,31.30
2012,08,05,16,01,31.40
2012,08,05,16,02,31.50
2012,08,05,16,03,31.50
2012,08,05,16,04,31.60
2012,08,05,16,05,31.70
2012,08,05,16,06,31.70
2012,08,05,16,07,31.70
2012,08,05,16,08,31.70
2012,08,05,16,09,31.70
2012,08,05,16,10,31.60
2012,08,05,16,11,31.60
2012,08,05,16,12,31.50
2012,08,05,16,13,31.40
2012,08,05,16,14,31.40
2012,08,05,16,15,31.40
2012,08,05,16,16,31.40
2012,08,05,16,17,31.30
2012,08,05,16,18,31.30
2012,08,05,16,19,31.30
2012,08,05,16,20,31.30
2012,08,05,16,21,31.30
2012,08,05,16,22,31.40
2012,08,05,16,23,31.40
2012,08,05,16,24,31.40
2012,08,05,16,25,31.40
2012,08,05,16,26,31.40
2012,08,05,16,27,31.40
2012,08,05,16,28,31.40
2012,08,05,16,29,31.40
2012,08,05,16,30,31.40
2012,08,05,16,31,31.30
2012,08,05,16,32,31.30
2012,08,05,16,33,31.30
2012,08,05,16,34,31.20
2012,08,05,16,35,31.20
2012,08,05,16,36,31.20
2012,08,05,16,37,31.20
2012,08,05,16,38,31.20
2012,08,05,16,39,31.20
2012,08,05,16,40,31.10
2012,08,05,16,41,31.10
2012,08,05,16,42,31.10
2012,08,05,16,43,31.00
2012,08,05,16,44,31.00
2012,08,05,16,45,30.90
2012,08,05,16,46,30.90
2012,08,05,16,47,30.80
2012,08,05,16,48,30.80
2012,08,05,16,49,30.70
2012,08,05,16,50,30.70
2012,08,05,16,51,30.60
2012,08,05,16,52,30.60
2012,08,05,16,53,30.60
2012,08,05,16,54,30.70
2012,08,05,16,55,30.60
2012,08,05,16,56,30.70
2012,08,05,16,57,30.70
2012,08,05,16,58,30.70
2012,08,05,16,59,30.70
2012,08,05,17,00,30.80
2012,08,05,17,01,30.80
2012,08,05,17,02,30.80
2012,08,05,17,03,30.80
2012,08,05,17,04,30.80
2012,08,05,17,05,30.90
2012,08,05,17,06,30.90
2012,08,05,17,07,30.90
2012,08,05,17,08,30.90
2012,08,05,17,09,30.90
2012,08,05,17,10,30.90
2012,08,05,17,11,30.90
2012,08,05,17,12,30.90
2012,08,05,17,13,30.90
2012,08,05,17,14,30.90
2012,08,05,17,15,30.90
2012,08,05,17,16,31.00
2012,08,05,17,17,31.00
2012,08,05,17,18,31.00
2012,08,05,17,19,31.00